KD1KE Weather Reports


time (UTC)temp
C
wind
direction
speed
KPH
gust
KPH
rain 1hr
cm
rain 24hr
cm
rain mn
cm
humidity
%
barometer
mb
20260508071538 1 0 0.0 0.0 0.00 0.00 0.00 80 1004.3
20260508071247 1 0 0.0 0.0 0.00 0.00 0.00 79 1004.4
20260508071208 1 0 0.0 0.0 0.00 0.00 0.00 79 1004.4
20260508070903 1 0 0.0 0.0 0.00 0.00 0.00 79 1004.4
20260508070439 1 0 0.0 0.0 0.00 0.00 0.00 80 1004.4
20260508070306 2 0 0.0 0.0 0.00 0.00 0.00 79 1004.3
20260508070004 2 0 0.0 0.0 0.00 0.00 0.00 79 1004.3
20260508065414 2 0 0.0 0.0 0.00 0.00 0.00 79 1004.3
20260508065338 2 0 0.0 0.0 0.00 0.00 0.00 79 1004.3
20260508065103 2 142 0.0 1.6 0.00 0.00 0.00 78 1004.2
20260508064506 2 142 0.0 3.2 0.00 0.00 0.00 79 1004.3
20260508064239 2 142 0.0 3.2 0.00 0.00 0.00 78 1004.4
20260508064203 2 142 0.0 3.2 0.00 0.00 0.00 79 1004.4
20260508063303 2 0 0.0 0.0 0.00 0.00 0.00 78 1004.5
20260508063139 2 142 0.0 1.6 0.00 0.00 0.00 78 1004.5
20260508062707 2 142 0.0 1.6 0.00 0.00 0.00 77 1004.5
20260508062403 2 142 0.0 1.6 0.00 0.00 0.00 76 1004.5
20260508062040 2 143 0.0 1.6 0.00 0.00 0.00 76 1004.5
20260508061807 3 145 0.0 3.2 0.00 0.00 0.00 76 1004.5
20260508061503 3 145 0.0 3.2 0.00 0.00 0.00 76 1004.4
20260508060939 3 176 0.0 1.6 0.00 0.00 0.00 77 1004.6
20260508060908 3 176 0.0 1.6 0.00 0.00 0.00 77 1004.6
20260508060603 3 176 0.0 1.6 0.00 0.00 0.00 77 1004.6
20260508060007 3 0 0.0 0.0 0.00 0.00 0.00 76 1004.8
20260508055839 3 0 0.0 0.0 0.00 0.00 0.00 76 1004.9
20260508055703 3 0 0.0 0.0 0.00 0.00 0.00 75 1004.9
20260508055107 3 176 0.0 1.6 0.00 0.00 0.00 74 1005.1
20260508054803 3 163 0.0 8.0 0.00 0.00 0.00 74 1005.1
20260508054739 3 169 0.0 8.0 0.00 0.00 0.00 74 1005.1
20260508054208 4 170 1.6 8.0 0.00 0.00 0.00 74 1005.0
20260508053903 4 170 1.6 8.0 0.00 0.03 0.00 73 1005.0
20260508053638 3 175 0.0 6.4 0.00 0.00 0.00 74 1005.0
20260508053309 3 0 0.0 0.0 0.00 0.00 0.00 74 1005.0
20260508053003 3 0 0.0 0.0 0.00 0.03 0.00 76 1005.0
20260508052538 2 0 0.0 0.0 0.00 0.00 0.00 78 1005.1
20260508052407 2 0 0.0 0.0 0.00 0.00 0.00 78 1005.2
20260508052103 2 0 0.0 0.0 0.00 0.03 0.00 79 1005.2
20260508051511 2 0 0.0 0.0 0.00 0.05 0.00 79 1005.3
20260508051439 2 0 0.0 0.0 0.00 0.05 0.00 79 1005.3
20260508051203 2 0 0.0 0.0 0.00 0.10 0.00 78 1005.3
20260508050613 2 0 0.0 0.0 0.00 0.13 0.00 79 1005.3
20260508050338 2 0 0.0 0.0 0.00 0.18 0.00 79 1005.2
20260508050303 2 0 0.0 0.0 0.00 0.18 0.00 79 1005.2
20260508045707 2 0 0.0 0.0 0.00 0.18 0.00 79 1005.2
20260508045403 2 0 0.0 0.0 0.00 0.18 0.00 79 1005.2
20260508045239 2 0 0.0 0.0 0.00 0.18 0.00 78 1005.3
20260508044807 2 0 0.0 0.0 0.00 0.18 0.00 77 1005.2
20260508044503 2 0 0.0 0.0 0.00 0.20 0.00 77 1005.3
20260508044138 2 0 0.0 0.0 0.00 0.18 0.00 78 1005.3
20260508043908 2 0 0.0 0.0 0.00 0.18 0.00 77 1005.3
20260508043604 2 0 0.0 0.0 0.00 0.20 0.00 76 1005.3
20260508043039 2 0 0.0 0.0 0.00 0.18 0.00 77 1005.4
20260508043006 2 0 0.0 0.0 0.00 0.18 0.00 76 1005.3
20260508042703 2 0 0.0 0.0 0.00 0.23 0.00 76 1005.3
20260508042108 2 0 0.0 0.0 0.00 0.23 0.00 75 1005.2
20260508041938 2 0 0.0 0.0 0.00 0.23 0.00 75 1005.2
20260508041803 2 0 0.0 0.0 0.00 0.23 0.00 75 1005.3
20260508041206 3 0 0.0 0.0 0.00 0.25 0.00 76 1005.2
20260508040902 3 0 0.0 0.0 0.00 0.25 0.00 75 1005.3
20260508040838 3 0 0.0 0.0 0.00 0.25 0.00 74 1005.3
20260508040306 3 0 0.0 0.0 0.00 0.28 0.00 75 1005.4
20260508040002 3 0 0.0 0.0 0.00 0.30 0.00 74 1005.4
20260508035738 3 0 0.0 0.0 0.00 0.28 0.30 73 1005.5
20260508035406 3 0 0.0 0.0 0.00 0.30 0.30 73 1005.5
20260508035102 3 0 0.0 0.0 0.00 0.33 0.30 74 1005.5
20260508034637 3 0 0.0 0.0 0.00 0.30 0.30 74 1005.5
20260508034506 3 0 0.0 0.0 0.00 0.30 0.30 74 1005.5
20260508033538 3 0 0.0 0.0 0.00 0.36 0.30 74 1005.6
20260508032738 4 0 0.0 0.0 0.00 0.36 0.30 72 1005.6
20260508032706 4 0 0.0 0.0 0.00 0.36 0.30 72 1005.6
20260508032439 4 0 0.0 0.0 0.00 0.36 0.30 72 1005.6
20260508031808 4 0 0.0 0.0 0.00 0.36 0.30 70 1005.4
20260508031338 4 0 0.0 0.0 0.00 0.38 0.30 71 1005.4
20260508030911 5 0 0.0 0.0 0.00 0.38 0.30 70 1005.4
20260508030602 5 0 0.0 0.0 0.00 0.38 0.30 69 1005.4
20260508030238 5 0 0.0 0.0 0.00 0.38 0.30 69 1005.4
20260508030007 5 0 0.0 0.0 0.00 0.38 0.30 68 1005.3
20260508025702 5 0 0.0 0.0 0.00 0.38 0.30 68 1005.4
20260508025138 5 173 0.0 3.2 0.00 0.38 0.30 69 1005.4
20260508025106 5 173 0.0 3.2 0.00 0.38 0.30 69 1005.3
20260508024802 5 173 0.0 3.2 0.00 0.38 0.30 69 1005.2
20260508024210 5 26 0.0 3.2 0.00 0.38 0.30 69 1005.2
20260508024037 5 83 0.0 3.2 0.00 0.38 0.30 69 1005.2
20260508023902 5 170 0.0 3.2 0.00 0.41 0.30 69 1005.2
20260508023002 5 193 0.0 3.2 0.00 0.41 0.30 69 1005.3
20260508022939 5 194 0.0 3.2 0.00 0.38 0.30 70 1005.3
20260508022407 5 176 0.0 6.4 0.00 0.43 0.30 73 1005.3
20260508021837 5 176 1.6 6.4 0.00 0.46 0.30 70 1005.3
20260508021506 5 176 0.0 4.8 0.00 0.46 0.30 71 1005.3
20260508021202 5 176 0.0 4.8 0.00 0.46 0.30 70 1005.3
20260508020737 5 176 0.0 1.6 0.00 0.46 0.30 69 1005.3
20260508020302 5 176 0.0 1.6 0.00 0.46 0.30 69 1005.3
20260508015637 5 0 0.0 0.0 0.00 0.46 0.30 70 1005.5
20260508015402 5 0 0.0 0.0 0.00 0.48 0.30 70 1005.5
20260508014805 5 0 0.0 0.0 0.00 0.46 0.30 70 1005.3
20260508014537 5 0 0.0 0.0 0.00 0.46 0.30 69 1005.3
20260508014502 5 0 0.0 0.0 0.00 0.48 0.30 69 1005.3
20260508013906 6 0 0.0 0.0 0.00 0.46 0.30 70 1005.4
20260508013601 6 0 0.0 0.0 0.00 0.51 0.30 69 1005.4
20260508013437 6 0 0.0 0.0 0.00 0.51 0.30 70 1005.3
20260508013005 6 0 0.0 0.0 0.00 0.51 0.30 68 1005.3
20260508012702 6 0 0.0 0.0 0.00 0.51 0.30 68 1005.3
20260508012336 6 176 0.0 1.6 0.00 0.51 0.30 68 1005.3
20260508012107 6 176 0.0 1.6 0.00 0.51 0.30 68 1005.4
20260508011802 6 176 0.0 1.6 0.00 0.51 0.30 69 1005.4
20260508011238 6 0 0.0 0.0 0.00 0.51 0.30 65 1005.3
20260508011206 6 0 0.0 0.0 0.00 0.51 0.30 66 1005.4
20260508010901 6 0 0.0 0.0 0.00 0.51 0.30 64 1005.4
20260508010305 7 177 0.0 1.6 0.00 0.51 0.30 64 1005.2
20260508010138 7 177 0.0 1.6 0.00 0.51 0.30 64 1005.2
20260508010001 7 177 0.0 1.6 0.00 0.51 0.30 64 1005.2
20260508005406 7 0 0.0 0.0 0.00 0.51 0.30 62 1005.2
20260508005102 7 0 0.0 0.0 0.00 0.51 0.30 61 1005.2
20260508005037 7 0 0.0 0.0 0.00 0.51 0.30 62 1005.1
20260508004506 8 0 0.0 0.0 0.00 0.51 0.30 62 1005.1
20260508004201 8 178 0.0 1.6 0.00 0.51 0.30 61 1005.0
20260508003936 8 178 0.0 1.6 0.00 0.51 0.30 61 1005.0
20260508003301 8 0 0.0 0.0 0.00 0.51 0.30 60 1004.8
20260508002838 8 178 0.0 3.2 0.00 0.51 0.30 58 1004.8
20260508002706 9 178 0.0 3.2 0.00 0.51 0.30 58 1004.8
20260508002401 9 175 0.0 6.4 0.00 0.51 0.30 57 1004.8
20260508001809 10 173 0.0 6.4 0.00 0.51 0.30 54 1004.7
20260508001736 10 173 0.0 6.4 0.00 0.51 0.30 54 1004.7
20260508000905 10 0 0.0 0.0 0.00 0.51 0.30 53 1004.7
20260508000638 10 0 0.0 0.0 0.00 0.51 0.30 55 1004.6
20260508000601 10 0 0.0 0.0 0.00 0.53 0.30 55 1004.6
20260508000005 10 0 0.0 0.0 0.00 0.51 0.30 52 1004.6
20260507235536 10 0 0.0 0.0 0.00 0.51 0.30 53 1004.5
20260507235106 11 112 0.0 6.4 0.00 0.51 0.30 52 1004.4
20260507234801 11 129 1.6 6.4 0.00 0.53 0.30 49 1004.5
20260507234438 11 148 1.6 6.4 0.00 0.51 0.30 48 1004.3
20260507234205 11 177 1.6 6.4 0.00 0.51 0.30 49 1004.3
20260507233337 11 174 3.2 11.3 0.00 0.51 0.30 49 1004.0
20260507233305 11 175 3.2 11.3 0.00 0.51 0.30 49 1004.0
20260507233001 11 171 3.2 11.3 0.00 0.53 0.30 48 1003.9
20260507232406 11 182 1.6 9.7 0.00 0.51 0.30 49 1003.8
20260507232236 11 182 1.6 9.7 0.00 0.51 0.30 49 1003.9
20260507232101 12 182 1.6 9.7 0.00 0.53 0.30 48 1003.8
20260507231506 12 177 0.0 3.2 0.00 0.51 0.30 48 1003.6
20260507231201 12 342 0.0 1.6 0.00 0.53 0.30 48 1003.7
20260507231136 12 342 0.0 1.6 0.00 0.51 0.30 48 1003.6
20260507230301 12 174 1.6 8.0 0.00 0.56 0.30 48 1003.5
20260507230036 12 155 1.6 9.7 0.00 0.53 0.30 48 1003.4
20260507225706 12 144 1.6 9.7 0.00 0.53 0.30 47 1003.3
20260507225401 12 115 1.6 9.7 0.00 0.58 0.30 46 1003.3
20260507224936 12 133 1.6 9.7 0.00 0.58 0.30 47 1003.1
20260507224806 13 146 1.6 9.7 0.00 0.58 0.30 48 1003.1
20260507224501 13 175 3.2 11.3 0.00 0.61 0.30 48 1003.1
20260507223908 13 154 3.2 11.3 0.00 0.58 0.30 46 1002.8
20260507223837 13 154 3.2 11.3 0.00 0.58 0.30 46 1002.8
20260507223005 13 133 3.2 11.3 0.00 0.64 0.30 46 1002.7
20260507222736 13 177 3.2 8.0 0.00 0.64 0.30 44 1002.7
20260507222701 13 181 1.6 8.0 0.00 0.66 0.30 44 1002.7
20260507221801 14 185 4.8 12.9 0.00 0.66 0.30 41 1002.5
20260507221636 14 184 4.8 12.9 0.00 0.64 0.30 40 1002.5
20260507221205 14 174 3.2 11.3 0.00 0.64 0.30 39 1002.5
20260507220901 15 175 3.2 11.3 0.00 0.69 0.30 40 1002.5
20260507220537 15 168 3.2 11.3 0.00 0.69 0.30 40 1002.5
20260507220304 15 168 3.2 12.9 0.00 0.71 0.30 39 1002.4
20260507220001 15 178 4.8 14.5 0.00 0.74 0.30 38 1002.5
20260507215436 15 197 4.8 14.5 0.00 0.79 0.30 40 1002.3
20260507215100 15 191 4.8 14.5 0.00 0.84 0.30 40 1002.3
20260507214504 15 168 3.2 12.9 0.00 0.91 0.30 40 1002.3
20260507214337 15 164 3.2 12.9 0.00 0.91 0.30 39 1002.3
20260507214200 15 161 3.2 12.9 0.00 0.94 0.30 38 1002.4
20260507213609 15 178 6.4 19.3 0.00 0.97 0.30 40 1002.3
20260507213300 15 182 6.4 19.3 0.00 1.02 0.30 40 1002.3
20260507213236 15 183 6.4 19.3 0.00 1.02 0.30 40 1002.2
20260507212705 15 166 3.2 14.5 0.00 1.02 0.30 39 1002.2
20260507212400 15 163 4.8 9.7 0.00 1.04 0.30 39 1002.2
20260507212135 15 175 4.8 16.1 0.00 1.04 0.30 41 1002.1
20260507211805 15 185 4.8 16.1 0.00 1.04 0.30 42 1002.1
20260507211500 15 186 4.8 16.1 0.00 1.09 0.30 41 1002.1
20260507211036 15 181 3.2 11.3 0.00 1.09 0.30 44 1002.0
20260507210904 15 179 3.2 11.3 0.00 1.09 0.30 43 1002.0
20260507210600 15 182 3.2 11.3 0.00 1.12 0.30 45 1002.0
20260507205937 16 184 4.8 12.9 0.00 1.09 0.30 43 1002.0
20260507205700 16 184 6.4 12.9 0.00 1.14 0.30 43 1002.0
20260507205105 16 183 4.8 14.5 0.00 1.17 0.30 44 1001.9
20260507204836 16 192 4.8 14.5 0.00 1.17 0.30 44 1002.0
20260507204800 16 190 4.8 14.5 0.00 1.22 0.30 44 1002.0
20260507204205 16 177 4.8 14.5 0.00 1.27 0.30 44 1001.9
20260507203900 16 182 4.8 12.9 0.00 1.27 0.30 46 1002.0
20260507203736 16 185 4.8 12.9 0.00 1.27 0.30 47 1001.9
20260507203345 16 193 4.8 12.9 0.00 1.27 0.30 48 1001.9
20260507203304 16 193 4.8 12.9 0.00 1.27 0.30 48 1001.9
20260507203000 16 194 4.8 11.3 0.00 1.32 0.30 48 1001.9
20260507202636 16 202 4.8 14.5 0.00 1.30 0.30 48 1001.9
20260507202409 16 196 4.8 14.5 0.00 1.32 0.30 49 1001.7
20260507201535 16 194 6.4 19.3 0.00 1.37 0.30 51 1001.7
20260507201504 16 195 6.4 19.3 0.00 1.40 0.30 50 1001.7
20260507201200 16 192 6.4 19.3 0.00 1.45 0.30 51 1001.6
20260507200608 16 198 6.4 19.3 0.00 1.47 0.30 53 1001.7
20260507200436 16 196 6.4 19.3 0.00 1.47 0.30 51 1001.8
20260507200300 16 196 4.8 19.3 0.00 1.52 0.30 51 1001.8
20260507195705 15 181 1.6 9.7 0.00 1.52 0.30 53 1001.8
20260507195400 15 175 1.6 9.7 0.00 1.55 0.30 53 1001.8
20260507195335 15 173 1.6 9.7 0.00 1.55 0.30 53 1001.8
20260507194804 15 185 1.6 8.0 0.00 1.57 0.30 53 1001.9
20260507194236 15 203 3.2 12.9 0.00 1.57 0.30 53 1002.0
20260507193904 15 196 3.2 12.9 0.00 1.57 0.30 53 1002.0
20260507193600 15 182 3.2 12.9 0.00 1.63 0.30 52 1001.9
20260507193136 15 181 3.2 8.0 0.00 1.60 0.30 52 1001.9
20260507193005 15 187 3.2 8.0 0.00 1.60 0.30 52 1001.9
20260507192700 15 189 3.2 8.0 0.00 1.65 0.30 52 1001.9
20260507192035 15 209 1.6 9.7 0.00 1.68 0.30 54 1002.0
20260507191800 15 183 1.6 9.7 0.00 1.73 0.30 53 1001.9
20260507190936 15 184 3.2 9.7 0.00 1.73 0.30 52 1001.9
20260507190900 15 184 1.6 9.7 0.00 1.78 0.30 52 1001.9
20260507190304 15 160 1.6 12.9 0.00 1.75 0.30 51 1001.9
20260507190000 16 171 3.2 12.9 0.00 1.80 0.30 53 1001.9
20260507185836 16 182 3.2 12.9 0.00 1.78 0.30 50 1001.9
20260507185059 16 185 4.8 11.3 0.00 1.80 0.30 50 1001.9
20260507184734 16 173 3.2 11.3 0.00 1.78 0.30 50 1001.8
20260507184503 16 190 1.6 11.3 0.00 1.78 0.30 51 1001.9
20260507184159 16 205 1.6 11.3 0.00 1.80 0.30 51 1001.9
20260507183634 16 218 1.6 11.3 0.00 1.78 0.30 51 1002.0
20260507183605 16 218 1.6 11.3 0.00 1.78 0.30 49 1002.0
20260507183300 17 217 1.6 9.7 0.00 1.80 0.30 50 1002.0
20260507182703 17 190 3.2 9.7 0.00 1.78 0.30 50 1002.1
20260507182536 17 188 3.2 9.7 0.00 1.78 0.30 50 1002.1
20260507182400 17 195 4.8 9.7 0.00 1.80 0.30 50 1002.2
20260507181803 16 205 4.8 12.9 0.00 1.78 0.30 54 1002.3
20260507181459 16 199 4.8 14.5 0.00 1.80 0.30 50 1002.2
20260507181436 16 198 4.8 14.5 0.00 1.78 0.30 50 1002.3
20260507180904 16 191 3.2 14.5 0.00 1.78 0.30 52 1002.3
20260507180600 16 192 3.2 14.5 0.00 1.80 0.30 53 1002.4
20260507180334 15 205 3.2 14.5 0.00 1.78 0.30 56 1002.5
20260507180003 15 209 3.2 14.5 0.00 1.78 0.30 54 1002.5
20260507175659 15 191 3.2 14.5 0.00 1.80 0.30 56 1002.6
20260507175234 15 158 3.2 9.7 0.00 1.78 0.30 55 1002.6
20260507175104 15 148 1.6 9.7 0.00 1.78 0.30 56 1002.6
20260507174759 15 163 1.6 9.7 0.00 1.80 0.30 57 1002.6
20260507174208 15 193 1.6 8.0 0.00 1.78 0.30 57 1002.6
20260507174135 15 193 1.6 8.0 0.00 1.78 0.30 57 1002.6
20260507173304 15 176 1.6 9.7 0.00 1.78 0.30 57 1002.7
20260507173035 15 185 3.2 9.7 0.00 1.78 0.30 57 1002.7
20260507172959 15 188 3.2 9.7 0.00 1.80 0.30 57 1002.7
20260507172406 15 181 3.2 9.7 0.00 1.78 0.30 57 1002.6
20260507172059 15 168 3.2 8.0 0.00 1.80 0.30 59 1002.6
20260507171934 15 168 3.2 8.0 0.00 1.78 0.30 58 1002.6
20260507171504 15 179 3.2 8.0 0.00 1.78 0.30 57 1002.7
20260507171159 15 178 1.6 8.0 0.00 1.80 0.30 55 1002.7
20260507170836 15 191 3.2 9.7 0.00 1.78 0.30 55 1002.7
20260507170603 15 193 1.6 9.7 0.00 1.78 0.30 56 1002.7
20260507170259 15 193 1.6 9.7 0.00 1.80 0.30 55 1002.7
20260507165735 15 147 1.6 9.7 0.00 1.78 0.30 56 1002.8
20260507165702 15 150 1.6 9.7 0.00 1.78 0.30 54 1002.8
20260507165359 15 125 1.6 9.7 0.00 1.80 0.30 54 1002.8
20260507164802 15 153 1.6 6.4 0.00 1.78 0.30 57 1002.9
20260507164635 15 166 3.2 8.0 0.00 1.78 0.30 56 1002.9
20260507164459 15 188 3.2 8.0 0.00 1.80 0.30 56 1003.0
20260507163903 16 194 3.2 9.7 0.00 1.78 0.30 57 1003.0
20260507163536 15 203 1.6 9.7 0.00 1.78 0.30 57 1003.1
20260507163006 15 126 3.2 9.7 0.00 1.78 0.30 63 1003.2
20260507162659 14 74 3.2 9.7 0.00 1.80 0.30 62 1003.2
20260507162434 14 70 3.2 9.7 0.00 1.78 0.30 63 1003.2
20260507162142 14 29 1.6 8.0 0.00 1.78 0.30 62 1003.3
20260507162103 14 29 1.6 8.0 0.00 1.78 0.30 62 1003.3
20260507161759 14 338 1.6 8.0 0.00 1.80 0.30 61 1003.3
20260507161335 14 24 1.6 9.7 0.00 1.78 0.30 61 1003.5
20260507161203 14 70 3.2 11.3 0.00 1.78 0.30 60 1003.5
20260507160859 14 106 3.2 11.3 0.00 1.80 0.30 59 1003.4
20260507160304 14 267 3.2 11.3 0.00 1.78 0.30 61 1003.6
20260507160233 14 267 3.2 11.3 0.00 1.78 0.30 61 1003.6
20260507155959 14 294 1.6 11.3 0.00 1.80 0.30 61 1003.7
20260507155402 15 151 3.2 8.0 0.00 1.78 0.30 62 1003.7
20260507155134 15 159 3.2 8.0 0.00 1.78 0.30 62 1003.7
20260507155059 15 164 3.2 8.0 0.00 1.80 0.30 62 1003.7
20260507154503 15 178 1.6 8.0 0.00 1.78 0.30 63 1003.7
20260507154159 15 210 3.2 8.0 0.00 1.80 0.30 64 1003.7
20260507154035 15 189 3.2 11.3 0.00 1.78 0.30 64 1003.7
20260507153603 15 205 4.8 11.3 0.00 1.78 0.30 62 1003.8
20260507153259 15 191 4.8 11.3 0.00 1.80 0.30 65 1003.7
20260507152934 15 209 1.6 9.7 0.00 1.78 0.30 65 1003.7
20260507152702 15 167 1.6 9.7 0.00 1.78 0.30 63 1003.6
20260507152359 15 217 1.6 8.0 0.00 1.80 0.30 63 1003.6
20260507151834 14 223 1.6 9.7 0.00 1.78 0.30 68 1003.9
20260507151802 14 222 1.6 9.7 0.00 1.78 0.30 68 1003.7
20260507151458 14 223 1.6 9.7 0.00 1.80 0.30 66 1003.7
20260507150903 14 62 1.6 8.0 0.00 1.78 0.30 67 1003.8
20260507150734 14 86 1.6 8.0 0.00 1.78 0.30 68 1003.8
20260507150558 13 81 3.2 8.0 0.00 1.80 0.30 67 1003.8
20260507150002 13 141 3.2 11.3 0.00 1.78 0.30 67 1003.9
20260507145658 13 105 3.2 11.3 0.00 1.80 0.30 69 1003.8
20260507145634 13 80 3.2 11.3 0.00 1.78 0.30 70 1003.9
20260507145103 13 57 3.2 11.3 0.00 1.78 0.30 72 1003.9
20260507144758 13 52 3.2 11.3 0.00 1.80 0.30 68 1003.9
20260507144534 13 188 3.2 9.7 0.00 1.78 0.30 72 1003.9
20260507144203 13 166 3.2 9.7 0.00 1.78 0.30 70 1004.0
20260507143858 13 134 3.2 9.7 0.00 1.80 0.30 69 1004.0
20260507143435 13 104 4.8 8.0 0.00 1.78 0.30 70 1004.1
20260507143303 13 108 4.8 8.0 0.00 1.78 0.30 72 1004.1
20260507142958 13 92 3.2 8.0 0.00 1.80 0.30 70 1004.1
20260507142407 13 9 1.6 8.0 0.00 1.78 0.30 72 1004.0
20260507142335 13 9 1.6 8.0 0.00 1.78 0.30 72 1004.0
20260507142058 13 305 1.6 8.0 0.00 1.80 0.30 72 1004.1
20260507141502 12 122 1.6 8.0 0.00 1.78 0.30 75 1004.2
20260507141234 12 98 1.6 8.0 0.00 1.78 0.30 75 1004.3
20260507141158 12 92 1.6 8.0 0.00 1.80 0.30 75 1004.3
20260507140602 12 352 3.2 8.0 0.00 1.78 0.30 75 1004.3
20260507140258 12 296 3.2 8.0 0.00 1.80 0.30 75 1004.5
20260507140133 12 265 3.2 9.7 0.00 1.78 0.30 75 1004.4
20260507135701 12 246 3.2 9.7 0.00 1.78 0.30 77 1004.3
20260507135358 12 229 1.6 9.7 0.00 1.80 0.30 77 1004.2
20260507135034 11 63 3.2 11.3 0.00 1.78 0.30 75 1004.3
20260507134801 11 53 3.2 11.3 0.00 1.78 0.30 77 1004.3
20260507134458 11 67 3.2 11.3 0.00 1.80 0.30 76 1004.3
20260507133934 11 160 3.2 11.3 0.00 1.78 0.30 78 1004.3
20260507133902 11 181 3.2 11.3 0.00 1.78 0.30 80 1004.3
20260507133558 11 200 1.6 11.3 0.00 1.80 0.30 78 1004.4
20260507133003 11 241 0.0 9.7 0.00 1.78 0.30 78 1004.5
20260507132833 11 246 0.0 9.7 0.00 1.78 0.30 79 1004.5
20260507132658 11 220 0.0 4.8 0.00 1.80 0.30 80 1004.5
20260507132102 11 188 0.0 6.4 0.00 1.78 0.30 79 1004.4
20260507131758 11 188 0.0 6.4 0.00 1.80 0.30 80 1004.5
20260507131734 11 188 0.0 6.4 0.00 1.78 0.30 80 1004.5
20260507131203 11 96 0.0 6.4 0.00 1.78 0.30 82 1004.5
20260507130858 11 55 0.0 4.8 0.00 1.80 0.30 81 1004.4
20260507130633 10 128 0.0 6.4 0.00 1.78 0.30 81 1004.5
20260507130303 10 147 0.0 6.4 0.00 1.78 0.30 82 1004.6
20260507125958 10 147 0.0 6.4 0.00 1.80 0.30 82 1004.5
20260507125533 10 0 0.0 0.0 0.00 1.78 0.30 81 1004.6
20260507125402 10 0 0.0 0.0 0.00 1.78 0.30 81 1004.5
20260507125058 10 0 0.0 0.0 0.00 1.80 0.30 81 1004.5
20260507124504 10 0 0.0 0.0 0.00 1.78 0.30 84 1004.6
20260507124433 10 0 0.0 0.0 0.00 1.78 0.30 84 1004.6
20260507124158 10 0 0.0 0.0 0.00 1.80 0.30 84 1004.6
20260507123602 10 178 0.0 8.0 0.00 1.78 0.30 84 1004.8
20260507123333 10 182 0.0 9.7 0.00 1.78 0.30 84 1004.8
20260507123258 10 178 0.0 9.7 0.00 1.80 0.30 84 1004.8
20260507122702 9 178 0.0 9.7 0.00 1.78 0.30 86 1004.6
20260507122358 9 260 0.0 4.8 0.00 1.80 0.30 87 1004.6
20260507122234 9 221 0.0 4.8 0.00 1.78 0.30 87 1004.6
20260507121840 8 221 0.0 4.8 0.00 1.78 0.30 88 1004.7
20260507121801 8 221 0.0 4.8 0.00 1.78 0.30 88 1004.7
20260507121457 8 0 0.0 0.0 0.00 1.80 0.30 89 1004.7
20260507121134 8 0 0.0 0.0 0.00 1.78 0.30 90 1004.7
20260507120901 8 0 0.0 0.0 0.00 1.78 0.30 90 1004.7
20260507120033 8 0 0.0 0.0 0.00 1.78 0.30 91 1004.8
20260507120003 8 0 0.0 0.0 0.00 1.78 0.30 91 1004.8
20260507115658 7 0 0.0 0.0 0.00 1.80 0.30 91 1004.8
20260507115103 7 0 0.0 0.0 0.00 1.78 0.30 92 1004.8
20260507114933 7 0 0.0 0.0 0.00 1.78 0.30 92 1004.8
20260507114757 7 0 0.0 0.0 0.00 1.80 0.30 92 1004.9
20260507114202 7 0 0.0 0.0 0.00 1.78 0.30 93 1004.9
20260507113857 7 0 0.0 0.0 0.00 1.80 0.30 93 1004.9
20260507113832 7 0 0.0 0.0 0.00 1.78 0.30 93 1004.9
20260507113302 7 0 0.0 0.0 0.00 1.78 0.30 93 1004.7
20260507112957 7 0 0.0 0.0 0.00 1.80 0.30 93 1004.8
20260507112733 7 0 0.0 0.0 0.00 1.78 0.30 93 1004.8
20260507112401 7 0 0.0 0.0 0.00 1.78 0.30 93 1005.2
20260507112057 7 0 0.0 0.0 0.00 1.80 0.30 93 1005.4
20260507111633 7 0 0.0 0.0 0.00 1.78 0.30 93 1005.3
20260507111503 7 0 0.0 0.0 0.00 1.78 0.30 93 1005.1
20260507111157 7 0 0.0 0.0 0.00 1.80 0.30 93 1005.0
20260507110604 7 0 0.0 0.0 0.00 1.78 0.30 93 1004.7
20260507110532 7 0 0.0 0.0 0.00 1.78 0.30 93 1004.7
20260507110257 7 0 0.0 0.0 0.00 1.80 0.30 93 1004.7
20260507105701 6 0 0.0 0.0 0.00 1.78 0.30 93 1005.0
20260507105433 6 0 0.0 0.0 0.00 1.78 0.30 93 1004.6
20260507105357 6 0 0.0 0.0 0.00 1.80 0.30 93 1004.6
20260507104801 6 0 0.0 0.0 0.00 1.78 0.30 93 1004.9
20260507104457 6 0 0.0 0.0 0.00 1.80 0.30 93 1004.9
20260507104333 6 0 0.0 0.0 0.00 1.78 0.30 93 1004.9
20260507103901 6 0 0.0 0.0 0.00 1.78 0.30 93 1004.7
20260507103557 6 0 0.0 0.0 0.00 1.80 0.30 93 1005.0
20260507103232 6 0 0.0 0.0 0.00 1.78 0.30 93 1004.9
20260507103001 6 0 0.0 0.0 0.00 1.78 0.30 93 1004.9
20260507102657 6 0 0.0 0.0 0.00 1.80 0.30 93 1004.5
20260507102133 6 0 0.0 0.0 0.00 1.78 0.30 93 1004.5
20260507102101 6 0 0.0 0.0 0.00 1.78 0.30 93 1004.5
20260507101757 6 0 0.0 0.0 0.00 1.80 0.30 92 1004.4
20260507101202 6 0 0.0 0.0 0.00 1.78 0.30 92 1004.6
20260507101032 6 0 0.0 0.0 0.00 1.78 0.30 92 1004.6
20260507100857 6 0 0.0 0.0 0.00 1.80 0.30 92 1004.6
20260507100302 6 0 0.0 0.0 0.00 1.78 0.30 92 1004.1
20260507095957 6 0 0.0 0.0 0.00 1.80 0.30 92 1004.2
20260507095932 6 0 0.0 0.0 0.00 1.78 0.30 92 1004.3
20260507095401 6 0 0.0 0.0 0.00 1.78 0.30 92 1004.3
20260507095057 6 0 0.0 0.0 0.00 1.80 0.30 92 1004.2
20260507094831 6 0 0.0 0.0 0.00 1.78 0.30 92 1004.3
20260507094502 6 0 0.0 0.0 0.00 1.78 0.30 92 1004.1
20260507094157 6 0 0.0 0.0 0.00 1.80 0.30 92 1004.2
20260507093733 6 0 0.0 0.0 0.00 1.78 0.30 92 1004.4
20260507093600 6 0 0.0 0.0 0.00 1.78 0.30 92 1004.3
20260507093257 6 0 0.0 0.0 0.00 1.80 0.30 92 1004.3
20260507092704 6 0 0.0 0.0 0.00 1.78 0.30 92 1004.3
20260507092633 6 0 0.0 0.0 0.00 1.78 0.30 92 1004.3
20260507092357 6 0 0.0 0.0 0.00 1.80 0.30 92 1004.1
20260507091801 6 0 0.0 0.0 0.00 1.78 0.30 92 1004.3
20260507091532 6 0 0.0 0.0 0.00 1.78 0.30 92 1004.4
20260507090902 6 0 0.0 0.0 0.00 1.78 0.30 92 1004.3
20260507090557 6 0 0.0 0.0 0.00 1.80 0.30 92 1004.4
20260507090433 6 0 0.0 0.0 0.00 1.78 0.30 92 1004.5
20260507090001 6 0 0.0 0.0 0.00 1.78 0.30 92 1004.9
20260507085657 6 0 0.0 0.0 0.00 1.80 0.30 92 1004.7
20260507085332 6 0 0.0 0.0 0.00 1.78 0.30 92 1004.5
20260507085100 6 0 0.0 0.0 0.00 1.78 0.30 92 1004.4
20260507084757 6 0 0.0 0.0 0.00 1.80 0.30 92 1004.0
20260507084232 6 0 0.0 0.0 0.00 1.78 0.30 92 1004.0
20260507084200 6 0 0.0 0.0 0.00 1.78 0.30 92 1004.0
20260507083857 6 0 0.0 0.0 0.00 1.80 0.30 92 1004.1
20260507083300 7 0 0.0 0.0 0.00 1.78 0.30 92 1004.1
20260507083133 7 0 0.0 0.0 0.00 1.78 0.30 92 1003.9
20260507082956 7 0 0.0 0.0 0.00 1.80 0.30 92 1003.9
20260507082401 7 0 0.0 0.0 0.00 1.78 0.30 92 1004.0
20260507082056 7 0 0.0 0.0 0.00 1.80 0.30 92 1004.0
20260507082032 7 0 0.0 0.0 0.00 1.78 0.30 92 1004.0
20260507081500 7 0 0.0 0.0 0.00 1.78 0.30 92 1003.7
20260507080932 7 0 0.0 0.0 0.00 1.78 0.30 92 1004.1
20260507080601 7 0 0.0 0.0 0.00 1.78 0.30 92 1004.0
20260507080256 7 0 0.0 0.0 0.00 1.80 0.30 92 1004.0
20260507075832 7 0 0.0 0.0 0.00 1.78 0.30 92 1003.9
20260507075735 7 0 0.0 0.0 0.00 1.78 0.30 92 1004.1
20260507075700 7 0 0.0 0.0 0.00 1.78 0.30 92 1004.1
20260507075356 7 0 0.0 0.0 0.00 1.80 0.30 92 1004.2
20260507074804 7 0 0.0 0.0 0.00 1.78 0.30 92 1004.0
20260507074732 7 0 0.0 0.0 0.00 1.78 0.30 92 1004.0
20260507073901 7 0 0.0 0.0 0.00 1.78 0.30 92 1003.8
20260507073632 7 0 0.0 0.0 0.00 1.78 0.30 92 1003.8
20260507073556 7 0 0.0 0.0 0.00 1.80 0.30 92 1003.8
20260507073001 7 0 0.0 0.0 0.00 1.78 0.30 93 1003.9
20260507072531 7 0 0.0 0.0 0.00 1.78 0.30 93 1003.5
20260507072131 7 0 0.0 0.0 0.00 1.78 0.30 93 1003.8
20260507072100 7 0 0.0 0.0 0.00 1.78 0.30 93 1003.8
20260507071756 7 0 0.0 0.0 0.00 1.80 0.30 93 1003.8